sat.trackr.live / text

‹ back to catalog

ONEWEB-0338

NORAD 49204 · 2021-083U

PAYLOAD ACTIVE UNKNOWN

§ Identity

Operator
Country
UK
Launch date
2021-09-14
Launch site
TYMSC
Launch vehicle
Mass (kg)
RCS (m²)

Purposes: comms

External: N2YO · Heavens-Above · Gunter

§ Orbital elements

Epoch: 2026-09-13T01:41:30.183936Z

Period
109.03 min
Inclination
87.9139°
Eccentricity
0.0002035
Mean motion
13.20770471 rev/d
Perigee alt
1,180.2 km
Apogee alt
1,183.3 km
Semi-major
7,559.9 km
B*
-1.4757e-4
RAAN
256.9153°
Arg perigee
80.0553°
Mean anomaly
280.0810°
Rev number
24,841

§ Raw data

ONEWEB-03381 49204U 21083U   26256.07048824 -.00000047  00000+0 -14757-3 0  99962 49204  87.9139 256.9153 0002035  80.0553 280.0810 13.20770471248410

JSON: /api/v1/satellites/49204 · /tle

For live sub-satellite position, see the globe view (requires WebGL).

§ Visibility from observer

Set your observer location to see the next 7 days of passes ≥ 10°. The values pass through the URL so the page stays shareable.

No JS? Fill the form by hand. The geolocation button needs JavaScript.